Regional Weather Roundup
Issued by NWS Sioux Falls, SD

Home | Current Version | Previous Version | Text Only | Print | Product List | Glossary Off
Versions: 1 2 3 4 5 6 7 8 9 10 11 12 13 14 15 16 17 18 19 20 21 22 23 24 25 26 27 28 29 30 31 32 33 34 35 36 37 38 39 40 41 42 43 44 45 46 47 48 49 50

000
ASUS43 KFSD 242102
RWRFSD

WEATHER ROUNDUP FOR SE SOUTH DAKOTA/SW MINNESOTA/NW IOWA
NATIONAL WEATHER SERVICE SIOUX FALLS SD
400 PM CDT WED AUG 24 2016

NOTE: "FAIR" INDICATES FEW OR NO CLOUDS BELOW 12,000 FEET WITH NO
SIGNIFICANT WEATHER AND OR OBSTRUCTIONS TO VISIBILITY.


SDZ038>040-050-052>070-242200-
SOUTHEAST SOUTH DAKOTA

CITY           SKY/WX    TMP DP  RH WIND       PRES   REMARKS
BROOKINGS      CLOUDY    71  56  58 NW15      30.04R
CHAMBERLAIN    CLOUDY    74  52  45 NW12      30.07F
HURON          CLOUDY    76  51  41 W12       30.04S
MADISON        FAIR      68  57  68 NW8G17    30.06F
MITCHELL       CLOUDY    76  54  46 VRB3      30.06S
SIOUX FALLS    CLOUDY    73  58  59 N12       30.04F
WINNER         FAIR      73  51  46 NW9       30.10S
YANKTON        CLOUDY    73  54  49 NW5       30.05S
$$

MNZ071-072-080-081-089-090-097-098-242200-
SOUTHWEST MINNESOTA

CITY           SKY/WX    TMP DP  RH WIND       PRES   REMARKS
FAIRMONT       CLOUDY    75  58  55 NW10      30.02R
JACKSON        CLOUDY    73  57  56 NW5       30.04R
LUVERNE        CLOUDY    72  55  56 NW8       30.04F
MARSHALL       CLOUDY    74  57  55 W13       30.01R
MONTEVIDEO     CLOUDY    75  57  53 NW12      30.00F
REDWOOD FALLS  CLOUDY    75  59  57 W13       29.99R
TRACY          CLOUDY    74  60  61 W7        30.02S
WINDOM         CLOUDY    73  57  56 W9        30.02S
WORTHINGTON    CLOUDY    74  58  57 NW13      30.04S
$$

IAZ001>003-012>014-020>022-031-032-NEZ013-014-SDZ071-242200-
NORTHWEST IOWA

CITY           SKY/WX    TMP DP  RH WIND       PRES   REMARKS
CHEROKEE       PTSUNNY   76  63  65 NW7       30.04R
DENISON        CLOUDY    75  63  64 N7        30.01F
ESTHERVILLE    MOSUNNY   73  61  65 NW10      30.02R
LE MARS        CLOUDY    73  63  68 NW7       30.06R
ORANGE CITY    CLOUDY    75  57  53 N10       30.05S
SHELDON        CLOUDY    73  63  68 VRB5      30.03S
SIOUX CITY     CLOUDY    73  61  65 NW7       30.06R
SPENCER        CLOUDY    77  60  55 NW9       30.04R
STORM LAKE     CLOUDY    77  61  57 NW6       30.05R
$$

ABBREVIATIONS USED IN REMARKS
   TC - TEMPERATURE IN CELSIUS
  WCI - WIND CHILL INDEX
   HX - HEAT INDEX
  VSB - VISIBILITY





USA.gov is the U.S. government's official web portal to all federal, state and local government web resources and services.